Theta_e
272 271 271 270 270 270 269 268 268 267 267 267 267 267 267 266 265 264 265 265 265 264 264 264 263 263 264 265 264 265 265 265 265 264 265 265 264 264 263 262 262 262 262 265 268 267 267 268 267 266 267 266 266 266 267 268 267 267 266 266 266 267 268
272 272 271 270 270 270 269 268 267 267 267 266 266 265 265 265 264 263 263 264 263 263 262 262 262 261 262 262 261 263 263 264 264 263 263 263 263 263 263 263 261 262 262 261 265 266 267 267 267 264 267 266 266 265 266 265 265 266 266 265 266 266 267
272 271 271 270 270 269 269 268 267 267 266 266 266 265 264 264 263 263 262 262 262 262 262 261 261 260 261 260 259 260 261 262 262 262 262 262 262 262 262 262 262 261 261 260 262 264 263 264 265 264 265 266 265 265 265 264 264 265 265 265 265 265 266
271 271 270 269 269 269 268 267 268 267 266 266 265 265 264 263 263 263 263 262 262 262 261 260 260 260 260 259 258 259 260 260 260 261 261 260 261 261 261 261 261 261 260 261 260 262 262 264 264 264 266 265 264 264 263 264 264 265 264 264 265 265 265
271 270 269 269 269 268 268 267 267 266 265 265 265 265 264 263 263 263 263 262 262 262 261 260 260 260 259 258 258 258 259 260 258 259 260 260 260 260 260 260 260 260 260 259 259 260 262 263 262 263 263 264 262 263 263 264 263 263 263 264 264 265 265
270 270 269 269 269 268 268 267 267 266 265 265 265 264 264 263 263 263 262 262 261 261 261 260 260 260 259 258 257 258 259 259 258 258 259 259 259 260 260 259 259 259 259 258 258 259 259 261 261 261 262 263 263 262 262 263 263 264 264 263 263 264 265
270 269 269 269 269 268 267 267 266 265 264 265 265 264 263 262 262 262 261 261 261 262 261 261 260 260 260 258 258 258 259 258 258 257 257 258 258 259 259 258 258 259 258 258 257 258 259 259 261 261 261 264 264 263 262 261 261 262 264 265 264 263 265
269 269 269 268 268 268 267 266 266 265 265 264 264 263 262 262 261 261 261 261 261 261 261 261 261 260 260 259 259 258 259 259 258 258 257 258 258 258 258 258 258 258 258 258 257 258 258 260 260 261 262 263 262 261 262 262 261 261 262 263 264 264 263
269 268 268 268 268 267 267 266 265 265 264 263 263 262 262 262 261 261 260 261 261 261 261 261 260 260 260 260 259 259 259 259 259 259 258 258 258 257 257 257 258 259 259 259 259 258 259 259 260 261 261 262 262 262 262 264 264 262 262 263 262 263 264
268 267 267 267 267 266 266 265 265 265 264 264 263 262 261 261 260 261 261 260 260 260 260 260 260 260 259 259 259 259 259 259 259 259 260 260 259 258 257 257 257 259 260 259 259 259 259 259 260 261 261 261 262 263 263 262 262 261 262 262 262 262 263
267 266 267 266 266 265 265 265 265 263 266 267 266 262 261 261 260 260 260 260 259 259 259 259 259 259 259 259 259 258 259 259 259 259 259 259 260 260 259 258 257 258 259 260 260 260 260 260 260 261 262 262 262 263 262 262 262 261 261 260 259 258 262
266 266 266 265 265 265 264 264 264 266 268 269 269 264 261 261 260 260 259 259 259 259 260 260 260 259 259 259 259 258 258 259 259 259 259 259 259 260 260 260 260 259 259 259 259 260 260 260 260 261 262 262 262 262 262 262 262 261 260 258 258 259 258
265 265 265 265 264 264 264 264 263 266 269 270 270 270 262 261 260 260 259 259 259 259 259 260 261 260 260 260 260 259 259 258 259 260 260 260 260 260 260 260 261 261 261 262 260 259 259 260 261 260 261 262 262 262 260 260 260 260 260 259 259 259 260
265 265 264 264 264 263 264 263 263 265 269 270 271 271 267 261 260 260 260 260 259 259 259 260 261 262 262 263 261 261 260 259 259 259 260 260 260 260 260 261 261 261 261 261 261 261 260 261 262 261 262 263 263 260 259 259 259 260 259 259 259 260 261
264 264 263 263 263 263 263 263 263 265 268 270 271 271 271 262 261 261 261 261 261 261 261 261 261 263 263 264 264 263 261 260 260 259 260 260 260 260 261 261 261 261 261 261 261 261 261 261 262 262 262 263 262 261 261 261 260 260 260 260 261 260 260
265 264 263 263 263 263 262 263 263 265 267 270 271 271 269 267 263 262 262 262 262 262 263 263 263 263 263 264 264 265 264 262 262 260 260 260 260 261 261 262 263 264 265 263 262 262 262 262 262 264 263 263 262 262 262 262 261 261 260 258 257 257 259
264 264 263 262 262 262 262 262 262 263 266 269 270 270 268 268 267 266 265 264 264 264 264 264 264 264 265 265 265 265 265 265 263 262 261 260 260 260 260 261 262 263 265 267 268 268 268 268 268 268 269 269 269 266 263 261 259 258 259 258 256 257 258
264 264 264 263 262 262 262 262 262 262 264 268 270 269 267 267 266 266 266 265 265 265 265 265 265 265 265 265 265 265 265 265 264 262 261 260 259 259 259 260 261 261 261 263 264 264 265 266 266 265 264 264 265 263 262 260 257 259 259 257 258 256 258
264 264 264 263 262 261 261 262 261 262 262 266 269 268 267 266 266 265 265 265 264 265 264 264 264 264 264 264 264 264 265 265 264 262 261 260 259 258 258 259 261 260 259 259 259 259 259 259 260 260 260 261 261 261 261 260 259 260 258 257 257 257 257
264 263 263 263 262 261 261 261 261 261 261 263 267 269 267 266 265 264 264 264 263 263 263 263 263 263 263 263 263 263 264 264 264 262 261 260 259 258 258 260 260 260 260 259 259 259 259 259 259 259 260 259 259 259 260 260 260 259 259 258 257 257 257
263 262 262 262 262 261 261 260 260 260 261 262 264 267 267 266 265 264 263 263 262 262 262 261 262 262 262 262 262 262 262 265 265 264 262 261 260 260 261 262 261 260 260 260 259 259 259 260 260 260 260 259 259 259 259 259 260 260 259 258 257 257 256
262 261 261 261 261 260 260 260 260 260 260 261 262 264 265 265 265 264 263 262 262 262 261 261 262 262 262 261 261 261 262 264 264 264 263 262 263 263 262 261 261 261 261 261 261 260 260 260 260 260 260 259 259 259 259 259 259 259 259 259 259 257 256
261 261 260 260 260 260 259 260 259 259 259 260 261 262 263 264 264 264 263 262 261 261 261 262 261 262 261 260 260 261 261 262 262 262 262 263 263 263 263 262 262 261 261 261 260 260 259 259 259 259 259 259 259 259 259 258 258 258 258 258 258 258 258
260 260 259 259 259 259 259 259 259 259 259 259 260 261 262 262 262 262 261 262 261 262 261 260 260 260 260 260 260 260 260 260 260 260 261 261 261 261 261 261 260 260 259 259 259 258 258 258 259 259 259 259 260 260 259 259 257 257 257 256 256 256 256
260 259 259 259 259 259 259 259 259 259 259 258 259 259 260 260 260 260 260 259 260 260 260 260 260 259 259 259 259 259 259 259 259 259 259 259 259 259 259 259 259 259 258 258 257 257 258 258 258 259 259 259 259 258 258 257 256 256 255 255 255 255 255
259 259 259 258 259 259 259 259 259 258 259 258 258 258 259 259 259 259 259 259 259 259 259 258 259 258 258 258 258 258 258 258 258 258 258 258 258 258 259 258 258 258 257 257 257 257 257 258 258 258 259 258 257 256 256 256 255 255 254 254 253 253 253
258 258 258 258 258 259 259 259 259 259 259 258 258 258 258 258 258 258 258 258 258 258 258 258 258 258 258 258 258 258 258 258 258 258 258 258 258 258 258 258 258 258 257 257 257 257 257 258 258 258 257 256 256 255 256 256 255 254 254 254 254 253 253
259 258 258 258 259 259 259 258 259 259 258 258 258 258 258 258 258 258 258 257 258 258 258 258 258 257 257 257 257 257 257 257 257 257 257 258 258 258 258 258 258 257 257 257 257 257 257 257 257 256 256 256 256 255 255 256 254 254 253 254 253 252 251
259 259 260 259 259 259 258 258 258 258 260 259 259 258 258 257 257 258 258 258 258 258 257 257 256 256 256 256 255 255 255 256 256 256 257 256 257 257 257 257 257 256 256 256 256 255 255 255 255 255 255 255 255 255 255 255 254 254 253 253 253 251 252
260 261 260 260 260 261 260 259 260 261 260 260 259 259 258 258 258 258 257 257 257 257 256 256 255 255 255 255 255 255 255 255 256 256 256 256 255 255 256 256 256 256 256 256 256 256 255 255 255 254 255 254 254 254 255 255 254 253 253 252 251 251 251
261 260 260 260 260 260 260 259 259 260 260 260 260 259 259 258 258 258 257 257 256 255 255 255 255 255 255 255 255 255 255 256 256 255 255 255 256 255 255 255 255 255 256 255 255 255 255 255 254 254 254 254 254 253 254 254 254 253 253 252 252 251 251
260 260 260 259 259 259 259 259 259 259 259 259 259 259 259 259 259 258 258 258 258 255 255 255 255 255 256 256 256 256 256 256 256 256 256 256 255 255 256 255 255 256 256 255 255 254 254 254 254 254 254 253 253 253 253 253 253 253 252 252 252 252 251
259 260 260 260 260 260 259 259 259 258 259 259 259 259 259 259 259 259 258 258 257 256 255 256 256 256 256 257 256 257 257 257 256 256 256 256 256 256 256 256 256 256 255 254 254 254 254 254 254 253 253 253 253 252 252 252 252 253 253 252 251 251 251
259 259 259 259 259 259 259 259 259 259 259 259 259 259 258 258 258 258 258 258 256 256 256 257 256 257 256 257 257 257 257 256 257 256 256 256 256 256 257 257 257 255 254 254 254 253 253 253 253 253 253 252 253 253 252 252 252 252 252 251 251 251 251
258 258 258 258 258 258 258 258 258 258 258 258 258 258 258 258 257 255 256 256 256 256 256 256 256 256 256 257 256 256 256 256 256 257 256 256 256 256 256 255 255 255 254 254 254 254 253 253 253 253 253 252 252 252 252 252 252 252 252 251 251 251 251
258 258 257 257 257 256 256 256 256 256 257 257 257 257 257 254 254 255 255 255 256 256 256 256 256 256 256 256 256 256 256 256 256 256 255 256 256 255 255 255 254 254 254 254 254 253 253 253 253 253 252 253 252 251 251 252 252 252 252 251 251 251 251
Wind_Speed
12 12 12 12 12 12 11 11 10 10 9 9 8 7 7 7 8 7 6 6 6 6 6 6 6 6 6 5 6 5 5 6 6 6 5 5 6 6 6 7 7 8 10 9 6 7 8 5 5 8 6 7 6 6 5 6 7 8 7 8 8 8 13
11 12 13 12 12 12 11 10 10 10 9 9 9 8 6 7 8 7 7 6 7 7 6 6 6 7 6 5 6 5 6 5 6 6 6 7 7 7 7 7 8 8 8 11 6 7 6 7 5 8 6 7 7 7 6 7 7 7 7 7 7 7 8
11 13 13 11 12 12 11 12 11 10 10 9 10 9 8 7 8 9 9 8 8 8 7 7 7 7 7 5 6 6 6 5 6 6 7 8 7 7 7 7 8 7 9 9 10 7 8 7 7 7 7 6 6 7 7 9 8 7 6 7 8 8 8
11 11 11 11 11 11 10 12 11 10 9 10 10 10 10 9 9 8 9 9 8 8 8 8 8 8 8 7 7 7 7 7 7 7 7 7 7 7 8 7 8 9 8 7 9 8 8 7 7 7 7 6 6 7 8 8 8 7 8 9 8 9 9
10 10 11 11 12 12 12 12 12 11 10 9 9 10 9 10 9 9 9 9 8 8 8 8 9 8 8 8 8 7 8 8 9 8 7 7 7 8 7 6 7 8 8 9 10 9 7 8 8 8 9 8 7 7 7 7 8 8 8 9 9 8 9
10 11 11 11 12 12 12 12 11 11 10 11 10 9 8 8 9 8 8 8 8 9 9 9 9 8 8 9 9 9 9 9 10 8 8 8 7 7 7 7 8 8 8 10 10 8 9 8 9 9 8 6 6 7 8 7 6 7 8 8 8 7 7
10 10 11 12 11 11 11 11 10 9 9 10 10 10 9 8 8 8 7 8 8 8 9 9 9 9 9 10 10 9 9 9 9 8 9 9 8 7 7 7 7 8 9 10 9 8 9 9 8 8 10 6 5 6 6 8 8 8 5 6 7 8 6
11 10 10 11 11 11 10 11 10 10 10 10 10 9 9 9 9 9 8 8 8 9 9 9 9 9 10 10 10 10 9 9 9 8 9 8 8 8 8 8 8 8 9 10 10 10 8 8 8 8 8 7 6 7 7 7 7 8 7 7 7 8 9
10 10 10 10 10 10 10 10 10 10 10 10 9 9 9 9 9 9 8 8 8 8 9 9 9 9 10 11 12 14 12 11 10 8 9 9 9 9 9 9 8 8 9 9 9 9 8 8 8 9 8 7 7 8 7 4 5 8 8 8 9 8 8
10 10 11 12 11 10 10 10 8 9 13 12 10 10 8 7 8 9 8 8 8 8 9 9 8 9 13 14 15 16 17 17 16 16 11 8 9 11 10 10 10 9 9 8 9 8 7 8 9 8 8 8 8 6 7 7 7 9 8 8 9 9 7
11 11 11 11 11 11 10 8 7 14 20 21 18 10 9 9 9 9 8 8 9 8 8 8 9 8 11 14 15 15 20 20 21 20 20 19 15 12 11 11 11 11 9 9 8 7 8 9 9 9 7 8 7 7 7 7 7 8 8 8 9 10 6
11 11 10 9 10 10 10 9 10 20 22 22 21 16 10 8 8 8 8 8 8 7 7 8 8 9 9 11 12 13 14 18 21 22 22 23 22 22 21 18 13 10 11 12 10 9 10 8 10 8 7 8 7 7 7 7 8 9 9 10 10 9 9
11 11 10 10 10 11 9 8 12 21 22 22 22 22 15 8 8 8 8 8 9 8 9 8 8 8 9 9 17 14 12 12 14 20 23 23 24 24 25 24 26 24 16 10 11 11 12 11 9 8 9 8 7 7 9 8 10 11 11 11 12 12 11
12 10 10 10 10 10 9 9 12 22 23 23 23 22 17 9 10 10 9 10 9 9 10 10 9 9 9 9 11 12 13 12 11 12 14 16 16 15 19 25 28 28 29 22 14 12 14 12 11 12 9 7 8 9 9 10 12 11 12 12 13 11 11
12 10 10 10 10 10 9 8 15 22 23 22 22 22 18 10 10 9 9 10 10 11 10 11 10 11 10 10 10 11 13 12 12 12 11 13 15 15 14 15 17 18 16 16 16 16 17 15 13 13 12 10 9 10 10 11 12 11 12 12 11 11 10
9 9 11 10 9 9 10 9 18 21 22 22 22 22 15 10 11 10 9 10 10 10 10 10 11 11 12 13 13 13 18 16 12 12 13 14 14 14 14 14 16 19 18 16 16 16 15 14 14 16 13 13 12 11 12 11 12 11 10 9 10 12 10
11 10 10 10 11 11 10 8 15 20 21 22 23 19 13 12 10 10 11 11 11 11 11 11 12 13 12 12 13 14 17 18 17 13 14 14 14 12 12 13 12 17 21 24 25 24 24 25 25 25 27 26 26 17 9 7 8 9 7 9 11 12 10
10 10 10 11 12 11 11 9 13 20 21 23 23 19 14 11 11 11 10 9 10 8 9 11 16 14 12 12 11 13 15 16 15 13 12 12 13 15 14 14 11 9 11 20 23 25 25 25 23 23 21 19 18 17 11 6 9 8 7 10 10 12 10
9 9 9 10 10 10 11 7 10 18 19 22 22 18 13 11 10 11 11 10 10 9 9 9 12 18 16 12 12 16 17 18 16 14 14 14 13 15 17 15 11 10 10 10 11 13 14 15 17 15 13 11 15 15 12 9 10 7 7 10 10 11 10
9 10 9 8 9 9 11 9 8 12 20 21 22 23 14 11 11 11 11 10 9 9 11 10 9 11 17 21 21 20 20 20 20 17 15 13 13 14 17 10 11 12 11 11 11 11 11 13 12 11 11 11 11 13 13 11 10 11 11 11 11 10 10
8 7 7 7 9 8 9 9 9 11 20 20 21 22 20 12 11 11 10 11 10 9 8 8 8 8 10 16 19 21 22 22 21 20 16 16 15 14 11 9 9 9 12 11 12 12 12 11 10 10 9 9 10 11 11 12 13 13 11 11 11 11 11
7 7 7 6 8 9 8 10 13 8 16 19 19 20 23 14 11 11 9 10 10 8 9 9 7 7 9 13 15 17 19 21 20 21 15 15 18 19 18 13 11 10 10 10 10 10 10 9 9 8 9 9 10 10 10 10 11 12 13 12 12 12 13
8 7 8 7 7 7 8 8 9 13 11 17 19 19 19 19 12 10 10 10 11 10 9 7 7 7 6 8 12 14 17 18 19 17 15 19 18 18 17 14 11 10 10 10 10 9 10 10 10 9 9 10 10 9 9 9 10 10 10 10 11 13 12
8 7 8 9 7 7 7 7 7 11 14 12 18 17 18 17 18 14 10 9 11 11 8 7 7 6 7 10 11 14 16 16 17 14 16 16 17 15 13 9 9 10 10 10 10 11 12 12 12 11 11 9 9 9 8 8 8 8 10 11 11 12 13
8 9 8 8 8 7 6 7 7 7 12 17 14 17 18 18 18 18 17 12 12 11 10 8 8 6 7 10 13 15 15 15 17 20 19 17 16 13 9 10 10 10 9 11 12 12 12 11 11 11 10 8 9 9 8 8 8 9 10 11 11 12 12
8 8 7 7 7 7 6 7 7 7 7 11 13 14 17 19 18 18 19 18 13 13 15 14 13 14 15 13 12 10 10 10 10 14 17 19 17 12 11 10 10 10 11 12 11 11 11 11 10 10 9 9 8 7 9 9 9 7 8 8 9 9 11
6 7 7 8 7 7 7 7 7 7 6 7 8 9 10 12 13 16 16 13 13 13 12 12 12 10 11 10 11 13 13 12 11 10 10 10 11 11 11 11 11 11 11 11 11 11 10 10 9 8 8 9 8 9 9 8 8 8 8 7 8 9 10
8 9 9 9 8 7 6 6 6 7 7 7 8 7 7 9 9 9 10 10 10 10 9 8 8 10 9 8 8 9 9 10 10 10 9 9 9 10 11 11 12 11 11 11 11 10 9 9 8 9 9 8 9 9 9 8 8 8 8 8 7 8 10
7 6 7 7 7 8 7 6 7 8 8 6 8 8 7 8 8 8 8 10 9 7 6 6 7 8 8 8 9 9 9 9 9 10 10 10 10 9 9 9 10 11 12 11 10 11 11 10 9 10 9 9 9 10 9 8 8 8 8 8 8 10 9
4 3 5 6 6 6 7 6 4 6 10 11 12 13 13 10 9 10 8 8 11 8 6 7 7 8 8 8 9 9 8 8 8 8 9 10 11 10 10 10 10 11 11 10 10 10 10 10 9 9 9 9 10 9 9 9 9 8 8 8 9 9 9
6 1 2 3 4 2 0 2 3 6 7 10 12 13 14 14 13 12 12 11 7 8 9 9 10 10 9 10 9 9 8 8 8 8 8 8 7 8 10 10 12 12 10 9 10 10 10 10 9 10 9 10 9 9 9 8 8 8 8 9 9 9 9
8 8 7 6 5 3 2 5 8 8 8 10 11 12 13 14 15 15 15 14 14 9 9 9 10 10 10 9 9 9 8 8 8 8 8 8 8 9 9 9 11 10 10 10 10 9 8 9 9 10 10 9 9 8 9 8 9 9 9 9 9 9 9
7 8 8 8 9 10 9 7 6 8 11 12 13 13 14 14 15 14 15 15 12 11 10 10 10 10 10 10 10 8 8 8 8 8 9 9 8 8 8 8 10 10 10 10 10 9 9 9 9 9 9 9 9 9 9 9 9 9 9 9 8 9 9
9 10 10 10 11 11 12 12 12 11 11 11 12 12 12 12 10 13 16 15 11 10 11 10 11 10 10 10 11 9 8 8 8 8 9 9 9 9 9 9 9 9 10 9 9 10 10 10 10 9 9 9 9 9 9 9 9 9 9 9 9 8 8
6 9 10 7 7 10 11 10 10 10 11 11 11 11 9 8 7 8 9 11 12 11 11 10 11 10 11 10 9 9 8 9 9 10 9 10 10 10 10 9 9 10 9 9 9 9 9 9 9 9 9 9 9 9 9 9 9 9 9 9 8 8 8
2 3 5 8 7 6 6 8 9 11 12 12 11 9 9 7 9 9 9 10 11 11 11 10 10 11 11 8 8 8 8 10 11 11 10 10 10 9 9 9 9 8 9 9 9 9 9 9 9 9 9 9 10 11 11 10 9 8 8 9 9 8 9
Wind_Direction
182 184 184 184 184 182 179 178 177 177 176 183 183 181 181 169 178 183 187 180 182 180 189 185 184 192 197 190 204 199 199 200 196 198 207 206 208 212 203 206 220 235 257 269 266 275 278 282 281 279 265 268 269 269 265 263 273 279 281 283 282 285 284
181 184 183 185 184 182 181 177 176 173 177 181 179 180 172 171 176 181 188 184 191 186 189 191 189 197 195 194 206 212 204 199 197 198 206 207 208 214 210 203 213 234 247 268 277 270 272 281 273 278 272 263 273 275 276 277 277 277 270 271 276 281 282
179 181 183 184 185 183 183 182 180 180 180 182 180 180 177 177 179 184 188 192 195 190 186 190 198 201 192 188 201 212 214 210 208 205 209 212 209 214 217 209 211 228 244 250 263 274 285 277 279 266 278 276 274 278 281 281 274 270 271 268 271 274 275
179 180 184 185 186 185 181 183 185 183 184 185 181 181 181 180 189 193 195 196 194 189 188 193 195 203 189 190 200 206 210 211 211 212 213 209 216 213 216 217 213 223 244 253 262 259 261 278 286 280 280 284 280 275 274 272 279 273 270 270 269 265 265
181 182 183 185 186 186 185 187 184 183 184 187 186 185 183 184 188 194 198 199 197 193 191 195 203 196 185 189 201 206 208 210 202 209 212 211 211 214 214 215 220 223 229 246 250 263 263 276 275 278 282 277 277 280 274 270 266 269 272 274 271 270 264
184 186 188 187 189 188 187 186 186 184 179 181 182 183 184 183 189 194 195 195 201 198 199 198 203 199 188 193 200 210 206 204 201 201 212 211 211 209 210 215 221 223 227 238 245 248 268 261 270 279 268 267 263 274 284 283 277 270 261 263 270 263 260
186 189 188 190 189 191 185 186 183 182 178 180 181 181 178 177 186 195 197 203 204 204 204 205 204 201 197 199 204 207 205 198 197 202 210 211 206 207 207 215 220 220 226 231 239 244 246 263 263 260 273 267 259 262 266 282 291 283 266 258 263 281 280
189 190 187 192 191 191 187 186 186 188 184 184 183 177 182 183 187 192 198 201 204 204 207 206 206 206 206 205 207 207 211 198 202 200 211 212 202 204 207 217 222 219 223 231 233 238 241 241 255 257 251 258 258 262 258 237 247 273 287 286 282 278 286
184 182 188 193 194 191 188 188 189 187 181 179 181 182 183 185 186 190 196 199 204 206 206 208 209 210 210 208 212 214 213 210 199 196 208 209 196 200 205 213 223 223 223 231 229 240 233 242 247 248 253 252 244 244 260 282 280 279 280 283 285 282 273
189 186 186 188 191 189 187 192 192 176 175 181 178 182 181 181 191 196 198 197 200 209 208 210 211 213 212 213 216 220 221 220 215 214 218 212 192 197 202 210 218 221 223 224 228 227 224 234 239 239 236 243 247 258 272 272 268 270 279 285 283 281 272
188 192 192 189 185 187 191 190 184 177 194 197 191 178 184 186 195 195 200 203 205 209 207 210 213 218 220 221 223 227 226 224 222 221 222 226 223 207 199 203 215 223 221 228 229 228 228 233 244 244 242 245 254 255 252 260 268 276 284 284 294 294 300
193 191 189 189 191 191 194 197 176 193 201 202 201 189 186 189 192 190 200 205 208 211 211 213 209 213 212 215 215 219 222 223 222 222 224 225 227 228 224 218 214 217 226 228 233 233 231 233 243 246 236 246 247 249 246 252 266 267 273 276 277 274 277
189 195 192 189 190 196 194 194 179 200 203 205 207 202 185 192 189 193 202 203 207 211 212 212 215 213 211 212 216 215 214 211 218 222 223 224 226 228 227 227 229 233 236 238 233 234 242 234 244 244 243 239 242 256 261 269 272 273 271 265 269 272 278
195 191 190 188 191 195 192 191 181 200 206 208 209 208 192 184 189 203 206 205 203 208 209 213 218 220 223 213 205 211 208 206 208 213 219 224 226 229 229 229 230 232 233 233 236 238 242 242 238 248 251 251 247 234 244 267 270 271 266 259 258 268 268
195 194 187 191 193 196 192 190 184 201 207 209 210 213 211 170 186 195 209 208 207 210 209 211 214 225 234 232 219 207 201 200 204 208 213 218 223 225 226 227 229 230 228 228 230 237 243 246 243 245 248 245 228 222 240 251 254 248 259 270 275 272 255
197 193 193 193 186 193 197 191 190 200 206 209 212 213 220 195 184 203 203 207 210 211 212 213 216 224 232 235 235 228 207 198 202 206 214 219 225 228 229 230 228 228 225 223 227 231 236 239 240 239 237 233 234 237 242 247 253 256 250 253 260 259 263
199 198 192 187 191 197 202 192 190 198 205 210 212 215 218 219 211 202 208 213 211 212 216 218 219 224 230 230 232 228 222 214 209 217 212 219 224 225 230 238 235 234 236 238 238 239 242 244 245 245 246 248 248 246 238 242 241 240 233 240 256 265 260
197 196 194 190 193 192 196 193 185 194 204 210 213 214 217 218 218 222 221 227 226 222 217 217 217 220 225 228 229 221 219 222 218 220 222 224 228 232 237 243 239 242 236 242 250 256 260 265 271 274 286 292 290 292 295 259 241 242 242 248 250 264 265
196 196 196 193 193 179 190 189 184 193 202 211 214 215 216 216 219 217 220 222 227 223 227 230 231 230 228 228 232 233 232 228 220 224 226 231 236 241 242 244 245 237 239 239 236 243 247 255 256 259 260 264 272 272 269 262 257 248 238 250 253 259 273
197 191 193 182 181 187 194 192 188 188 200 208 215 216 213 215 214 217 216 221 223 230 237 236 236 232 229 233 236 236 237 237 233 231 232 228 233 237 244 243 243 241 244 248 242 246 243 245 243 242 241 241 241 243 243 245 241 246 244 249 252 250 248
185 181 186 178 184 185 191 191 189 190 198 206 213 218 217 216 214 215 221 226 227 229 229 230 225 231 216 220 230 235 237 238 236 234 233 230 232 234 243 245 243 243 238 245 246 250 250 250 246 239 233 232 231 235 234 235 238 236 234 238 245 250 250
180 184 192 185 182 187 188 196 197 186 195 203 209 217 220 221 216 211 216 226 231 227 231 229 228 227 214 214 224 226 232 236 238 237 237 236 235 240 243 245 250 255 253 250 249 248 247 245 245 246 246 244 243 242 237 231 229 229 231 235 239 243 252
184 184 192 190 189 186 187 189 191 192 192 202 208 213 220 224 226 212 216 220 228 229 235 232 228 229 184 198 217 228 235 237 240 242 242 244 245 246 248 250 253 254 253 250 247 246 249 250 251 252 255 260 254 250 240 233 230 229 228 234 241 246 248
185 189 195 196 194 189 188 190 191 193 197 200 206 212 216 223 228 228 227 229 236 239 241 238 231 232 205 221 229 239 239 235 236 238 244 246 248 250 253 252 250 249 248 249 250 249 250 252 257 256 262 258 261 257 252 244 236 233 233 234 244 246 245
184 194 198 195 199 190 185 191 189 192 199 204 204 212 218 222 225 229 230 234 240 241 243 243 239 230 236 243 244 242 239 241 240 240 242 243 244 244 245 243 242 243 242 244 244 247 251 254 253 255 256 263 264 264 260 251 251 243 239 243 245 246 246
186 192 193 196 196 189 186 184 186 192 194 199 211 216 221 223 224 227 229 232 239 239 245 250 254 255 254 251 246 240 237 235 238 237 237 238 238 237 237 236 236 236 236 241 244 245 248 254 259 255 255 255 250 246 245 251 252 244 238 223 231 244 245
185 191 196 197 197 194 188 185 188 191 189 183 197 210 216 220 226 228 230 233 236 239 243 243 242 241 242 245 243 239 240 241 241 239 234 229 228 230 232 232 230 233 237 242 245 249 251 254 253 253 247 244 242 242 245 238 241 242 246 238 244 248 256
199 198 196 198 196 190 190 190 193 195 190 188 186 190 199 209 208 212 212 218 223 224 227 229 233 237 242 244 244 240 238 237 235 235 233 230 228 227 227 229 236 242 245 246 248 253 253 252 246 243 242 244 245 246 246 238 233 235 242 240 240 248 253
209 205 202 196 194 184 193 195 200 211 191 178 171 183 188 195 197 199 209 214 211 212 208 217 230 235 236 234 234 235 236 234 232 232 229 226 227 230 228 227 228 232 236 238 238 241 241 243 241 243 242 241 243 244 242 237 235 233 233 241 235 243 252
232 230 200 201 214 198 201 199 200 146 174 192 196 201 202 201 196 196 201 197 194 203 221 227 230 231 228 229 229 232 229 228 225 230 235 238 229 229 232 233 234 234 237 236 233 236 236 239 238 242 239 239 240 244 241 233 226 235 230 231 234 241 244
254 349 175 212 211 207 294 348 92 152 188 195 206 209 212 213 212 208 206 201 192 216 225 229 228 227 224 229 232 230 231 228 229 229 228 229 223 221 224 232 242 244 241 235 232 234 238 240 237 240 238 238 239 239 242 240 231 229 232 233 235 238 243
219 218 204 205 207 210 221 224 231 223 212 216 213 214 217 218 218 219 218 218 215 221 224 221 227 231 229 227 228 229 228 230 231 233 227 228 229 229 225 225 237 238 239 237 235 236 235 234 235 237 237 237 238 237 241 237 237 231 232 234 235 238 241
210 212 213 210 215 219 224 224 220 226 232 231 230 228 229 228 228 225 224 219 222 227 232 229 229 230 230 232 233 231 228 228 228 229 236 234 232 235 232 227 236 236 232 233 237 237 237 235 235 236 237 236 235 234 238 236 237 235 234 235 237 242 237
225 223 221 225 225 226 231 235 237 236 236 235 233 231 229 226 229 228 225 222 226 227 233 230 231 230 227 236 242 241 235 235 232 233 238 241 238 243 247 247 242 231 224 231 231 230 236 235 235 233 233 236 234 234 235 237 236 233 233 233 235 240 243
211 217 216 219 223 228 232 237 242 243 245 245 244 240 235 230 228 223 221 223 228 231 234 233 232 234 241 239 234 231 232 240 243 247 241 245 251 251 247 241 232 230 229 228 232 232 232 231 230 229 229 233 236 235 233 234 233 233 232 234 238 240 244
202 192 203 213 227 229 234 238 240 245 247 247 244 237 219 217 225 225 225 221 225 224 231 233 236 241 248 235 234 231 236 245 248 243 244 251 247 243 240 236 234 231 231 230 232 235 233 232 232 230 231 235 237 235 235 239 237 235 234 233 238 240 243